Location: Unspecified
(49.2170°N, 0.0000°E)
Time: 05:30:53
(UTC+00:00)

Vanguard 1 - Pass Details

Date: 28 January 2021
Orbit: 649 x 3834 km, 34.2° (Epoch: 08 March)

Event Time Altitude Azimuth Distance (km) Brightness Sun altitude
Rises 18:13:04 0° 279° (W) 7,728 16.0 -13.5°
Reaches altitude 10° 18:19:19 10° 270° (W) 6,881 15.7 -14.5°
Maximum altitude 18:36:48 29° 222° (SW) 5,292 14.2 -17.3°
Drops below altitude 10° 18:51:49 10° 171° (S) 5,833 13.9 -19.8°
Sets 18:56:36 0° 161° (SSE) 6,422 14.1 -20.6°
